This demonstration page uses our WeatherBlox Daily Observations layout. Learn more.

40.92945, -100.16068

Hourly Observations for September 12, 2018

Temp ( °F °C ) Dew Point ( °F °C ) Humidity (%) Winds ( mph kmh ) Pressure ( in mb ) Visibility ( mi km ) Precip ( " mm )
12:15 am 00:15 Clear 68 19.8 59 15.2 75 75 SSE 12 19 29.88 1012 10 16.0934 0 0
12:35 am 00:35 Clear 67 19.6 59 15.1 75 75 SSE 12 19 29.85 1011 10 16.0934 0 0
12:55 am 00:55 Clear 66 19.1 59 15.1 78 78 SSE 9 15 29.91 1013 10 16.0934 0 0
1:15 am 01:15 Clear 66 18.7 59 15.1 80 80 SSE 9 15 29.91 1013 10 16.0934 0 0
1:35 am 01:35 Clear 65 18.3 59 15.1 82 82 SE 9 15 29.91 1013 10 16.0934 0 0
1:55 am 01:55 Clear 64 18 59 15.1 83 83 SE 9 15 29.91 1013 10 16.0934 0 0
2:15 am 02:15 Clear 64 17.7 59 15.1 85 85 SSE 7 11 29.91 1013 10 16.0934 0 0
2:35 am 02:35 Clear 64 17.5 59 15.2 86 86 SSE 8 13 29.91 1013 10 16.0934 0 0
2:55 am 02:55 Clear 63 17.3 59 15.2 88 88 SSE 8 13 29.91 1013 10 16.0934 0 0
3:15 am 03:15 Clear 63 17.3 59 15.2 88 88 SSE 8 13 29.91 1013 10 16.0934 0 0
3:35 am 03:35 Clear 63 17.1 59 15.2 89 89 SE 8 13 29.88 1012 10 16.0934 0 0
3:55 am 03:55 Clear 63 17.2 59 15.2 88 88 SE 8 13 29.91 1013 10 16.0934 0 0
4:15 am 04:15 Clear 63 17.1 59 15.2 89 89 SE 8 13 29.91 1013 10 16.0934 0 0
4:35 am 04:35 Clear 62 16.8 59 15 89 89 SE 7 11 29.91 1013 10 16.0934 0 0
4:55 am 04:55 Clear 62 16.7 59 15.1 90 90 SE 6 9 29.91 1013 10 16.0934 0 0
5:15 am 05:15 Clear 61 16.3 59 15 92 92 SE 6 9 29.91 1013 10 16.0934 0 0
5:35 am 05:35 Clear 62 16.5 59 15 91 91 SSE 7 11 29.88 1012 10 16.0934 0 0
5:55 am 05:55 Clear 62 16.5 59 15.1 92 92 SE 8 13 29.88 1012 10 16.0934 0 0
6:15 am 06:15 Clear 62 16.6 59 15.1 91 91 SE 8 13 29.88 1012 10 16.0934 0 0
6:35 am 06:35 Clear 61 16.3 59 15 92 92 SE 6 9 29.88 1012 10 16.0934 0 0
6:55 am 06:55 Clear 61 16.2 59 15 93 93 SSE 8 13 29.91 1013 10 16.0934 0 0
7:15 am 07:15 Clear 61 16.2 59 15 93 93 SSE 8 13 29.88 1012 10 16.0934 0 0
7:35 am 07:35 Sunny 61 16.3 59 15.2 93 93 SSE 9 15 29.91 1013 10 16.0934 0 0
7:55 am 07:55 Sunny 62 16.7 60 15.5 93 93 SSE 7 11 29.91 1013 10 16.0934 0 0
8:15 am 08:15 Sunny 63 17.1 60 15.7 92 92 SE 8 13 29.91 1013 10 16.0934 0 0
8:35 am 08:35 Sunny 64 17.7 61 15.9 89 89 SE 10 17 29.91 1013 10 16.0934 0 0
8:55 am 08:55 Sunny 65 18.6 61 16.3 87 87 SSE 10 17 29.91 1013 10 16.0934 0 0
9:15 am 09:15 Sunny 67 19.7 62 16.6 82 82 S 10 17 29.88 1012 10 16.0934 0 0
9:35 am 09:35 Sunny 69 20.6 62 16.6 78 78 S 16 26 29.88 1012 10 16.0934 0 0
9:55 am 09:55 Sunny 71 21.6 62 16.5 73 73 S 15 24 29.88 1012 10 16.0934 0 0
10:15 am 10:15 Sunny 73 22.5 62 16.6 69 69 S 16 26 29.88 1012 10 16.0934 0 0
10:35 am 10:35 Sunny 73 22.8 62 16.6 68 68 S 20 31 29.88 1012 10 16.0934 0 0
10:55 am 10:55 Sunny 74 23.3 63 17 68 68 S 16 26 29.85 1011 10 16.0934 0 0
11:15 am 11:15 Sunny 74 23.6 63 17.1 67 67 S 21 33 29.85 1011 10 16.0934 0 0
11:35 am 11:35 Sunny 75 24.1 64 17.5 67 67 SSE 16 26 29.85 1011 10 16.0934 0 0
11:55 am 11:55 Sunny 76 24.5 63 17.4 65 65 SSE 16 26 29.83 1010 10 16.0934 0 0
12:15 pm 12:15 Sunny 77 25 64 18 65 65 SSE 16 26 29.83 1010 10 16.0934 0 0
12:35 pm 12:35 Sunny 77 25 64 18 65 65 SSE 17 28 29.83 1010 10 16.0934 0 0
12:55 pm 12:55 Sunny 78 25.5 64 18 63 63 S 23 37 29.83 1010 10 16.0934 0 0
1:15 pm 13:15 Sunny 79 26.1 65 18.4 63 63 SSE 21 33 29.83 1010 10 16.0934 0 0
1:35 pm 13:35 Sunny 79 26.3 66 18.7 63 63 SSE 17 28 29.8 1009 10 16.0934 0 0
1:55 pm 13:55 Sunny 80 26.6 65 18.6 62 62 SSE 23 37 29.77 1008 10 16.0934 0 0
2:15 pm 14:15 Partly Cloudy 80 26.8 66 18.7 61 61 SE 20 31 29.77 1008 10 16.0934 0 0
2:35 pm 14:35 Partly Cloudy 80 26.8 66 19 62 62 SSE 21 33 29.77 1008 10 16.0934 0 0
2:55 pm 14:55 Partly Cloudy 80 26.8 66 18.7 61 61 SSE 23 37 29.77 1008 10 16.0934 0 0
3:15 pm 15:15 Partly Cloudy 80 26.6 66 18.8 62 62 SSE 20 31 29.77 1008 10 16.0934 0 0
3:35 pm 15:35 Partly Cloudy 81 27.1 66 18.9 61 61 SSE 23 37 29.77 1008 10 16.0934 0 0
3:55 pm 15:55 Partly Cloudy 81 27 66 18.8 61 61 SSE 21 33 29.77 1008 10 16.0934 0 0
4:15 pm 16:15 Partly Cloudy 81 27.2 66 18.9 61 61 SSE 21 33 29.74 1007 10 16.0934 0 0
4:35 pm 16:35 Mostly Cloudy 80 26.8 66 19 62 62 SSE 20 31 29.74 1007 10 16.0934 0 0
4:55 pm 16:55 Mostly Cloudy 80 26.9 66 19.1 62 62 SSE 21 33 29.74 1007 10 16.0934 0 0
5:15 pm 17:15 Mostly Cloudy 79 26.1 66 18.9 65 65 SSE 17 28 29.74 1007 10 16.0934 0 0
5:35 pm 17:35 Mostly Cloudy 80 26.4 66 18.9 63 63 SSE 18 30 29.74 1007 10 16.0934 0 0
5:55 pm 17:55 Cloudy 80 26.5 66 18.8 63 63 SSE 24 39 29.74 1007 10 16.0934 0 0
6:15 pm 18:15 Mostly Cloudy 80 26.4 66 19 64 64 SSE 24 39 29.74 1007 10 16.0934 0 0
6:35 pm 18:35 Partly Cloudy 79 26.2 66 18.9 64 64 SSE 20 31 29.74 1007 10 16.0934 0 0
6:55 pm 18:55 Sunny 78 25.7 65 18.6 65 65 SSE 15 24 29.74 1007 10 16.0934 0 0
7:15 pm 19:15 Sunny 77 25.2 65 18.5 66 66 SSE 16 26 29.77 1008 10 16.0934 0 0
7:35 pm 19:35 Sunny 77 24.9 65 18.2 66 66 SE 13 20 29.77 1008 10 16.0934 0 0
7:55 pm 19:55 Clear 76 24.3 65 18.2 69 69 SE 14 22 29.77 1008 10 16.0934 0 0
8:15 pm 20:15 Clear 75 23.8 64 18 70 70 SE 14 22 29.77 1008 10 16.0934 0 0
8:35 pm 20:35 Clear 74 23.5 64 17.8 70 70 SE 15 24 29.77 1008 10 16.0934 0 0
8:55 pm 20:55 Clear 73 22.9 64 17.5 72 72 SE 16 26 29.77 1008 10 16.0934 0 0
9:15 pm 21:15 Clear 73 22.5 64 17.5 73 73 SE 14 22 29.77 1008 10 16.0934 0 0
9:35 pm 21:35 Clear 72 22.2 63 17.1 73 73 SE 15 24 29.83 1010 10 16.0934 0 0
9:55 pm 21:55 Clear 71 21.9 63 17.1 74 74 SE 13 20 29.83 1010 10 16.0934 0 0
10:15 pm 22:15 Clear 71 21.5 63 17.1 76 76 SSE 14 22 29.83 1010 10 16.0934 0 0
10:35 pm 22:35 Clear 70 21.3 63 17.1 77 77 SSE 16 26 29.83 1010 10 16.0934 0 0
10:55 pm 22:55 Clear 70 21.2 62 16.9 77 77 SSE 17 28 29.83 1010 10 16.0934 0 0
11:15 pm 23:15 Clear 70 21.2 62 16.5 75 75 SSE 17 28 29.83 1010 10 16.0934 0 0
11:35 pm 23:35 Clear 70 21.1 62 16.5 75 75 SSE 17 28 29.83 1010 10 16.0934 0 0
11:55 pm 23:55 Clear 70 21 62 16.5 76 76 SSE 18 30 29.83 1010 10 16.0934 0 0

Powered by AerisWeather